Content
SEND FEEDBACK

Daily
Averages
Monthly
Summary
United States of America

BOSTON, MASSACHUSETTS


Home > North America > United States > Massachusetts
Elevation: 4 feet     Latitude: 42 22N     Longitude: 071 02W

WEATHER
 
SELECT A DAY
Number of Records: 202,798;   Date Range: 1/1/95 - 8/14/14
 
SHARE

PRINT THIS DATA

[ ← Previous Day ]
WEATHER ALMANAC - JANUARY 16, 2013
[ Next Day → ]
[ °C ]   °F
Weather ElementAverageHighLow
Temperature32.5 °F36 °F (2:54 am)30 °F (7:54 am)
Dewpoint28.9 °F32 °F (12:54 pm)21.9 °F (3:54 am)
Humidity87.4 %100 % (9:04 am)59 % (2:54 am)
Barometer30.02 in30.23 in (1:54 am)29.84 in (4:54 pm)
Wind Speed6.1 mph9.2 mph (7:40 am)
Weather ElementAverage
Visibility4.1 mi
Wind DirectionWSW (245.7 °)

Weather ElementTotal
Precipitation0.72 in
Heating Degree Days32 (Base 65)
Averaged from 46 records on January 16, 2013
WEATHER CONDITIONS BREAKOUT
WIND DIRECTION BREAKOUT
WEATHER BY HOUR - JANUARY 16, 2013
[ °C ]   °F
Local TimeTemperatureDewpointHumidityBarometerVisibilityWind DirectionWind SpeedGust SpeedPrecipitationEventsConditions
1:54 AM35.1 °F23.0 °F61 %30.23 in10.0 miNNE (20°)4.6 mphOvercast
2:54 AM36.0 °F23.0 °F59 %30.22 in10.0 miNorth (10°)4.6 mphOvercast
3:54 AM35.1 °F21.9 °F59 %30.18 in10.0 miNNE (20°)8.1 mphOvercast
4:15 AM35.6 °F23.0 °F60 %30.17 in6.0 miNE (40°)5.8 mph0.00 inSnowLight Snow
4:39 AM33.8 °F24.8 °F70 %30.17 in2.0 miNE (40°)5.8 mph0.00 inSnowLight Snow
4:47 AM33.8 °F24.8 °F70 %30.17 in1.8 miNNE (30°)4.6 mph0.00 inSnowLight Snow
4:54 AM33.1 °F25.0 °F72 %30.17 in1.8 miNNE (30°)4.6 mph0.00 inSnowLight Snow
5:19 AM32.0 °F26.6 °F80 %30.16 in1.0 miNorth (360°)3.5 mph0.01 inSnowLight Snow
5:28 AM32.0 °F26.6 °F80 %30.15 in1.0 miNorth (360°)4.6 mph0.02 inSnowLight Snow
5:36 AM32.0 °F28.4 °F87 %30.15 in0.8 miNorth (360°)4.6 mph0.03 inSnowLight Snow
5:45 AM32.0 °F28.4 °F87 %30.15 in1.0 miNNW (340°)4.6 mph0.04 inSnowLight Snow
5:54 AM30.9 °F28.0 °F89 %30.14 in1.0 miNorth (350°)5.8 mph0.06 inSnowLight Snow
6:23 AM30.2 °F28.4 °F93 %30.13 in1.0 miNorth (350°)8.1 mph0.03 inSnowLight Snow
6:47 AM30.2 °F28.4 °F93 %30.12 in1.0 miNorth (350°)8.1 mph0.07 inSnowLight Snow
6:54 AM30.9 °F28.0 °F89 %30.12 in1.0 miNorth (350°)8.1 mph0.08 inSnowLight Snow
7:08 AM30.2 °F28.4 °F93 %30.13 in1.0 miNNW (340°)6.9 mph0.01 inSnowLight Snow
7:15 AM30.2 °F28.4 °F93 %30.13 in1.0 miNorth (350°)8.1 mph0.02 inSnowLight Snow
7:40 AM30.2 °F28.4 °F93 %30.11 in0.5 miNorth (350°)9.2 mph0.05 inFog-SnowSnow
7:54 AM30.0 °F28.0 °F92 %30.11 in0.8 miNorth (350°)8.1 mph0.06 inSnowLight Snow
7:59 AM30.2 °F28.4 °F93 %30.11 in1.0 miNorth (350°)6.9 mph0.01 inSnowLight Snow
8:10 AM30.2 °F28.4 °F93 %30.10 in0.8 miNorth (360°)4.6 mph0.01 inSnowLight Snow
8:54 AM30.9 °F28.9 °F92 %30.10 in1.0 miNorth (10°)3.5 mph0.04 inSnowLight Snow
9:04 AM30.2 °F30.2 °F100 %30.10 in0.8 miCalm0.00 inSnowLight Snow
9:14 AM30.2 °F30.2 °F100 %30.09 in0.8 miNorth (360°)3.5 mph0.02 inSnowLight Snow
9:44 AM30.2 °F30.2 °F100 %30.05 in1.0 miNorth (10°)4.6 mph0.03 inSnowLight Snow
9:54 AM30.9 °F30.0 °F96 %30.04 in1.0 miNorth (10°)4.6 mph0.03 inSnowLight Snow
10:54 AM32.0 °F30.9 °F96 %29.97 in1.5 miNorth (360°)8.1 mph0.01 inRain-SnowLight Rain
11:54 AM33.1 °F30.9 °F92 %29.94 in1.5 miNorth (350°)9.2 mph0.02 inRainLight Rain
12:54 PM33.1 °F32.0 °F96 %29.91 in1.5 miNorth (360°)5.8 mph0.02 inRainLight Rain
1:54 PM33.1 °F30.9 °F92 %29.88 in1.5 miNNW (340°)6.9 mph0.04 inRainLight Ice Pellets
2:54 PM33.1 °F30.9 °F92 %29.85 in1.5 miNNW (340°)9.2 mph0.00 inRainLight Rain
3:54 PM33.1 °F30.9 °F92 %29.85 in1.5 miNNW (340°)9.2 mph0.01 inLight Drizzle
4:54 PM33.1 °F30.9 °F92 %29.84 in1.5 miNNW (330°)5.8 mph0.00 inOvercast
5:31 PM33.8 °F30.2 °F87 %29.86 in9.0 miNW (310°)6.9 mphOvercast
5:54 PM33.1 °F30.9 °F92 %29.86 in9.0 miWNW (300°)8.1 mphOvercast
6:54 PM33.1 °F30.9 °F92 %29.86 in10.0 miWNW (300°)8.1 mphOvercast
7:10 PM33.8 °F30.2 °F87 %29.85 in10.0 miWNW (300°)5.8 mphOvercast
7:54 PM33.1 °F30.9 °F92 %29.84 in10.0 miWNW (300°)4.6 mphOvercast
8:54 PM34.0 °F32.0 °F92 %29.85 in9.0 miWNW (290°)3.5 mphOvercast
9:03 PM33.8 °F32.0 °F93 %29.85 in9.0 miSW (230°)3.5 mphOvercast
9:10 PM33.8 °F32.0 °F93 %29.84 in8.0 miSSW (210°)5.8 mphOvercast
9:26 PM33.8 °F30.2 °F87 %29.85 in8.0 miWSW (240°)6.9 mphOvercast
9:54 PM33.1 °F30.9 °F92 %29.84 in9.0 miSW (220°)5.8 mphOvercast
10:43 PM33.8 °F30.2 °F87 %29.86 in10.0 miSW (230°)8.1 mphOvercast
10:54 PM33.1 °F30.9 °F92 %29.84 in10.0 miSW (220°)6.9 mphOvercast
11:54 PM34.0 °F30.9 °F89 %29.85 in10.0 miSW (230°)8.1 mphOvercast
Hourly data recorded from KBOS, located miles away from Boston, Massachusetts







STORIES FROM OUR PARTNERS